Terminal Aerodrome Forecast
Issued by NWS

Home | Current Version | Previous Version | Graphics & Text | Print | Product List | Glossary On
Versions: 1 2 3 4 5 6 7 8 9 10 11 12 13 14 15 16 17
150
FTUS43 KABR 141509 AAA
TAFPIR
TAF AMD
KPIR 141509Z 1415/1512 35007KT 2SM -RA VCTS OVC025CB
     FM141800 34011KT 1 1/2SM SHRA BR OVC015
     FM142200 33018G27KT P6SM BKN020
     FM142300 33016G24KT P6SM BKN035
     FM150500 30009KT P6SM FEW200
     FM150900 26005KT P6SM FEW250=

USA.gov is the U.S. government's official web portal to all federal, state and local government web resources and services.